Location: Newark
(20.0000°S, 47.0000°E)
Time: 04:00:29
(UTC+00:00)

N. Korean satellite - Pass Details

Date: 25 March 2019
Orbit: 457 x 508 km, 97.2° (Epoch: 21 April)

Event Time Altitude Azimuth Distance (km) Brightness Sun altitude
Rises 15:17:08 0° 184° (S) 2,560 10.3 -5.1°
Reaches altitude 10° 15:19:24 10° 195° (SSW) 1,663 9.5 -5.7°
Maximum altitude 15:22:30 28° 256° (WSW) 914 9.0 -6.4°
Drops below altitude 10° 15:25:32 10° 317° (NW) 1,621 9.9 -7.1°
Sets 15:27:44 0° 328° (NNW) 2,481 10.6 -7.6°
